Regional Weather Roundup
Issued by NWS

Home | Current Version | Previous Version | Text Only | Print | Product List | Glossary Off
Versions: 1 2 3 4 5 6 7 8 9 10 11 12 13 14 15 16 17 18 19 20 21 22 23 24 25 26 27 28 29 30 31 32 33 34 35 36 37 38 39 40 41 42 43 44 45 46 47 48 49 50

000
ASUS45 KABQ 240510
RWRNM
NEW MEXICO REGIONAL WEATHER ROUNDUP
NATIONAL WEATHER SERVICE ALBUQUERQUE NM
1100 PM MDT FRI JUN 23 2017

NOTE: "FAIR" MEANS FEW OR NO CLOUDS BELOW 12,000 FEET AGL WITH NO
       SIGNIFICANT WEATHER OR OBSTRUCTIONS TO VISION.

      THIS PRODUCT IS RELEASED AS TWO VERSIONS.  ONE VERSION NEAR
      THE TOP OF THE HOUR CONTAINING PRELIMINARY DATA FROM ALBUQUERQUE
      AND OTHER STATIONS.  A FINAL VERSION WITH ADDITIONAL DATA IS
      ISSUED ABOUT 10 MINUTES AFTER THE HOUR.

NMZ501-503-504-510>518-240600-
NORTHWEST PLATEAU/NORTHCENTRAL MOUNTAINS

CITY           SKY/WX    TMP DP  RH WIND       PRES   REMARKS
FARMINGTON     FAIR      74  16  11 NE5       30.09R
LOS ALAMOS     FAIR      67  49  53 S18       30.31S
SANTA FE       FAIR      68  52  56 SE21G32   30.26R
TAOS           FAIR      64  45  48 SE22G31   30.30R
ANGEL FIRE     FAIR      57  46  66 S8        30.45R

$$
NMZ402-403-502-505>509-240600-
WESTCENTRAL MOUNTAINS/SOUTHWEST MOUNTAINS

CITY           SKY/WX    TMP DP  RH WIND       PRES   REMARKS
GALLUP         FAIR      71  26  18 CALM      30.20R
GRANTS         FAIR      72  23  15 N3        30.23R
SILVER CITY    FAIR      75  33  21 N12       30.09R

$$
NMZ407-409-411-412-240600-
SOUTHERN DESERTS

CITY           SKY/WX    TMP DP  RH WIND       PRES   REMARKS
DEMING         FAIR      88  56  33 E13       29.99R
LAS CRUCES     FAIR      86  56  35 SE17G26   30.03R
HOLLOMAN AFB   FAIR      85  55  35 W15       30.00R
ALAMOGORDO     FAIR      81  50  34 SE8       30.00R
T OR C         FAIR      84  51  31 SE5       30.03R

$$
NMZ519>523-240600-
CENTRAL VALLEYS/CENTRAL HIGHLANDS

CITY           SKY/WX    TMP DP  RH WIND       PRES   REMARKS
ALBUQUERQUE    FAIR      76  54  46 E29G41    30.14R
DOUBLE EAGLE   FAIR      73  53  48 SE16G25   30.20R
MORIARTY ARPT  FAIR      67  54  62 E3        30.32R
CLINES CORNERS FAIR      62  49  62 E15       30.36R
BELEN          FAIR      75  49  39 N3        30.13R
SOCORRO        FAIR      79  53  40 E10       30.12R

$$
NMZ524>526-539-540-240600-
SOUTHCENTRAL MOUNTAINS

CITY           SKY/WX    TMP DP  RH WIND       PRES   REMARKS
RUIDOSO        CLOUDY    66  57  72 S5        30.35R

$$
NMZ527>531-240600-
NORTHEAST HIGHLANDS/NORTHEAST PLAINS

CITY           SKY/WX    TMP DP  RH WIND       PRES   REMARKS
LAS VEGAS      CLOUDY    62  48  60 SE13      30.36R
RATON          CLOUDY    61  47  59 NE9       30.34R
CLAYTON        CLOUDY    61  48  62 E10       30.30R

$$
NMZ532>537-240600-
EASTCENTRAL PLAINS

CITY           SKY/WX    TMP DP  RH WIND       PRES   REMARKS
SANTA ROSA     CLOUDY    71  50  48 NE22G28   30.23R
TUCUMCARI      CLOUDY    72  51  47 NE15      30.21R
CANNON AFB     CLOUDY    74  55  49 NE14      30.20R
CLOVIS AIRPORT CLOUDY    73  53  49 NE20      30.20R

$$
NMZ028-029-538-240600-
SOUTHEAST PLAINS

CITY           SKY/WX    TMP DP  RH WIND       PRES   REMARKS
ROSWELL        FAIR      81  59  47 N7        30.09R
ARTESIA        FAIR      84  57  39 E7        30.07R
CARLSBAD       FAIR      81  52  36 E6        30.03R
HOBBS          FAIR      72  63  73 CALM      30.10R


$$




USA.gov is the U.S. government's official web portal to all federal, state and local government web resources and services.